WZZ5241 EHBK-EPKT

Flight info

Callsign WZZ5241
Flight time N/A
Altitude 35000
Route NETEX Z283 VEBAK L179 MEVEL Z44 HMM DCT EXOBA DCT TOLTA DCT LASIS T714 MOFKE
Aircraft A321/M-SDE3FGHIRWY/LB1

Departure

Time N/A
Airport Maastricht Aachen Airport (EHBK)

Arrival

Time 2026-04-30 18:24
Airport Katowice Wojciech Korfanty International Airport (EPKT)
Time Latitude Longitude Altitude Speed Heading
2026-04-30 17:39 51.55239 12.73563 35436 ft 442 kts 90°
2026-04-30 17:42 51.52412 13.22488 35457 ft 440 kts 90°
2026-04-30 17:43 51.50929 13.46961 35464 ft 440 kts 90°
2026-04-30 17:44 51.49070 13.76163 35467 ft 439 kts 90°
2026-04-30 17:47 51.46175 14.19888 35464 ft 437 kts 90°
2026-04-30 17:48 51.43810 14.53592 35427 ft 433 kts 90°
2026-04-30 17:50 51.41021 14.91858 35425 ft 432 kts 90°
2026-04-30 17:51 51.38203 15.05844 35426 ft 447 kts 105°
2026-04-30 17:52 51.34649 15.19555 35438 ft 447 kts 104°
2026-04-30 17:54 51.23856 15.60828 35449 ft 447 kts 104°
2026-04-30 17:56 51.14211 15.97280 35456 ft 445 kts 103°
2026-04-30 17:58 51.07189 16.24531 35451 ft 444 kts 104°
2026-04-30 18:00 50.97664 16.60743 35449 ft 443 kts 104°
2026-04-30 18:01 50.91665 16.83230 35441 ft 443 kts 104°
2026-04-30 18:02 50.84818 17.08627 35439 ft 443 kts 104°
2026-04-30 18:04 50.77455 17.35430 35441 ft 443 kts 104°
2026-04-30 18:05 50.72487 17.53210 35310 ft 438 kts 104°
2026-04-30 18:06 50.67729 17.70564 32671 ft 427 kts 103°
2026-04-30 18:07 50.62979 17.87796 29232 ft 431 kts 103°
2026-04-30 18:08 50.59508 18.00721 27176 ft 416 kts 98°
2026-04-30 18:09 50.58145 18.18136 24913 ft 394 kts 85°
2026-04-30 18:10 50.57677 18.35212 22082 ft 386 kts 86°
2026-04-30 18:11 50.57124 18.51868 19454 ft 379 kts 87°
2026-04-30 18:11 50.56648 18.64206 17527 ft 369 kts 88°
2026-04-30 18:12 50.56273 18.76177 14929 ft 361 kts 85°
2026-04-30 18:13 50.56368 18.84013 13767 ft 355 kts 84°
2026-04-30 18:13 50.56538 18.94320 12100 ft 349 kts 85°
2026-04-30 18:14 50.56596 19.03154 10695 ft 346 kts 87°
2026-04-30 18:15 50.56487 19.13843 9659 ft 287 kts 87°
2026-04-30 18:15 50.56411 19.22901 9241 ft 272 kts 86°
2026-04-30 18:16 50.56381 19.28845 8973 ft 271 kts 86°
2026-04-30 18:16 50.56345 19.34620 8708 ft 255 kts 86°
2026-04-30 18:17 50.56327 19.37361 8575 ft 246 kts 86°
2026-04-30 18:17 50.56312 19.40002 8442 ft 239 kts 86°
2026-04-30 18:17 50.56281 19.45165 8192 ft 237 kts 86°
2026-04-30 18:18 50.56175 19.47754 8056 ft 240 kts 101°
2026-04-30 18:18 50.55339 19.50053 7873 ft 250 kts 134°
2026-04-30 18:18 50.53788 19.51310 7495 ft 258 kts 170°
2026-04-30 18:18 50.51996 19.51370 7131 ft 262 kts 184°
2026-04-30 18:19 50.50211 19.50619 6507 ft 268 kts 207°
2026-04-30 18:19 50.48733 19.48874 5932 ft 264 kts 231°
2026-04-30 18:19 50.47813 19.46536 5640 ft 242 kts 252°
2026-04-30 18:19 50.47462 19.44075 5367 ft 224 kts 271°
2026-04-30 18:20 50.47462 19.41656 5084 ft 220 kts 275°
2026-04-30 18:20 50.47478 19.39257 4784 ft 219 kts 274°
2026-04-30 18:20 50.47491 19.36880 4470 ft 217 kts 274°
2026-04-30 18:20 50.47503 19.34513 4167 ft 216 kts 274°
2026-04-30 18:21 50.47514 19.32160 3871 ft 215 kts 274°
2026-04-30 18:21 50.47524 19.29823 3583 ft 213 kts 274°
2026-04-30 18:21 50.47532 19.27572 3306 ft 197 kts 274°
2026-04-30 18:21 50.47539 19.25528 3062 ft 174 kts 275°
2026-04-30 18:22 50.47545 19.23734 2811 ft 158 kts 275°
2026-04-30 18:22 50.47560 19.20417 2392 ft 149 kts 275°
2026-04-30 18:22 50.47566 19.18794 2189 ft 148 kts 275°
2026-04-30 18:23 50.47572 19.17181 1978 ft 148 kts 275°
2026-04-30 18:23 50.47578 19.15572 1760 ft 147 kts 273°
2026-04-30 18:23 50.47582 19.13967 1569 ft 147 kts 273°
2026-04-30 18:23 50.47590 19.12378 1352 ft 143 kts 274°
2026-04-30 18:24 50.47596 19.09281 1000 ft 132 kts 272°
2026-04-30 18:24 50.47602 19.08070 988 ft 87 kts 270°
2026-04-30 18:24 50.47602 19.07384 989 ft 40 kts 269°
2026-04-30 18:25 50.47552 19.07024 991 ft 32 kts 243°
2026-04-30 18:25 50.47486 19.06855 990 ft 4 kts 225°
2026-04-30 18:25 50.47450 19.06859 991 ft 8 kts 150°
2026-04-30 18:26 50.47436 19.06876 988 ft 1 kts 149°
2026-04-30 18:26 50.47427 19.06835 991 ft 9 kts 278°
2026-04-30 18:26 50.47428 19.06720 987 ft 12 kts 267°
2026-04-30 18:27 50.47278 19.06626 988 ft 14 kts 174°
2026-04-30 18:27 50.47237 19.06747 987 ft 14 kts 93°
2026-04-30 18:28 50.47233 19.07045 989 ft 6 kts 122°
2026-04-30 18:28 50.47199 19.07048 987 ft 6 kts 180°
2026-04-30 18:28 50.47163 19.07048 992 ft 0 kts 181°